Find Local Weather

World > North America > United States > Wisconsin

Mellen, Wisconsin Regional Weather

Lat: 46.32N, Lon: 90.66W
Wx Zone: WIZ003
Warning FLW WEATHER ALERT - (More Info. Click Here) Warning
Feedback
Expires:201811201300;;586128
ASUS43 KMKX 201210
RWRWI 

WISCONSIN REGIONAL WEATHER ROUNDUP
NATIONAL WEATHER SERVICE MILWAUKEE/SULLIVAN WI
600 AM CST TUE NOV 20 2018

NOTE: "FAIR" INDICATES FEW OR NO CLOUDS BELOW 12,000 FEET WITH NO
SIGNIFICANT WEATHER AND/OR OBSTRUCTIONS TO VISIBILITY.


WIZ003>005-009-010-017-018-201300-
NORTH CENTRAL WISCONSIN
  
CITY           SKY/WX    TMP DP  RH WIND       PRES   REMARKS
MANITOWISH WTR FLURRIES  11  10  98 SW5       30.10S WCI   3          
6HR MIN TEMP:   4; 6HR MAX TEMP:  14;                                

ARBOR VITAE    FLURRIES  13  11  90 SW3       30.11S                  
6HR MIN TEMP:   6; 6HR MAX TEMP:  14;                                

WOODRUFF       FLURRIES  13  11  90 SW3       30.11S                  
6HR MIN TEMP:   6; 6HR MAX TEMP:  14;                                

RHINELANDER    MOCLDY     0  -5  79 W3        30.11S                  
6HR MIN TEMP:  -3; 6HR MAX TEMP:  17;                                

EAGLE RIVER    FLURRIES  10   7  87 CALM      30.09S                  
6HR MIN TEMP:   6; 6HR MAX TEMP:  11;                                

LAND O LAKES   LGT SNOW   8   6  89 CALM      30.11S                  
6HR MIN TEMP:   2; 6HR MAX TEMP:  13;                                

PHILLIPS       FLURRIES  13  10  88 SW5       30.12F WCI   5          
6HR MIN TEMP:   4; 6HR MAX TEMP:  14;                                

TOMAHAWK       MOCLDY     0  -3  88 CALM      30.13F                  
6HR MIN TEMP:  -1; 6HR MAX TEMP:  14;                                

MEDFORD        FLURRIES  15  10  82 W6        30.13F WCI   6          
6HR MIN TEMP:  11; 6HR MAX TEMP:  16;                                

MERRILL        CLOUDY     8   6  92 CALM      30.15F                  
6HR MIN TEMP:   7; 6HR MAX TEMP:  15;                                

$$
 

SKY/WX - Weather  TMP - Temperature  DP - Dew Point  RH - Relative Humidity
WIND - Wind Direction/Speed PRES - Barometric Pressure